Weather in Pavlodar

Russia / Tambov Oblast     52°01′49″N   41°36′02″E
temp.,
°C
wind,
m/s
gust,
m/s
humid.,
%
clouds,
%
prec.,
mm/h
press.,
hPa
HPBL,
m
3 march, wed
wed300:000nw51096100 0.6 1008547
03:00−2nw4109492 0.6 1010245
06:00−2nnw6109585 0.1 1010612
09:00−1nnw8129393 0.4 1013856
12:00−2nnw7108667 0.1 1014823
15:00−3nw6108758 0.1 1016716
18:00−6wnw5108864 0.0 1017226
21:00−6w5129242 0.0 1017212
4 march, thu
thu400:00−3wsw5119365 0.0 1015444
03:00−2w5129383 0.1 1014584
06:00−1wsw71390100 0.1 1012724
09:00−1wsw8179097 0.3 1010570
12:00+1wsw9168846 0.0 1009700
15:00+1wsw8158450 0.0 1007854
18:000wsw5138145 0.0 1006393
21:000wsw6158661 0.0 1005525
5 march, fri
fri500:00+1sw41095100 0.0 1003406
03:00+2wsw61498100 0.6 1001472
06:00+2wsw71495100 0.1 1002573
09:000wnw51097100 0.3 1004535
12:00−1nnw469194 0.2 1007576
15:00−1nw458892 0.2 1009534
18:00−4nw229238 0.0 101121
21:00−5nnw129269 0.0 101321
6 march, sat
sat600:00−5n1194100 0.0 101321
03:00−5n2394100 0.0 101491
06:00−7nne3692100 0.0 1014171
09:00−7n3687100 0.0 1015233
12:00−6nnw358494 0.0 1015328
15:00−5nw248347 0.0 1015345
18:00−8wnw12870 0.0 101521
21:00−7ese018227 0.0 101621
7 march, sun
sun700:00−8ne2396100 0.3 1017138
03:00−9nnw4794100 1.3 1017283
06:00−13w338832 0.0 101765
09:00−8sw6118518 0.0 1016528
12:00−5sw91473100 0.0 1013944
15:00−3sw91767100 0.0 10091213
18:00−3sw91869100 0.0 10051118
21:00−2wsw101976100 0.0 10051170